Worldloppet Ski Federation - Fis Marathon Cup

Search and browse results

The current database enables the following:


ico general ranking search
ico women ranking search
ico alphabetical search

Engadin Skimarathon

10.03.2002 42 km FT

Men's ranking

2702.GABATHULER MarkusSUI2:17.40,1
2704.MORANDI AngeloSUI2:17.41,0
2705.PELLOLI ErnstSUI2:17.41,1
2709.HUGUELET RolandSUI2:17.42,3
2710.WENIG StephanGER2:17.43,2
2714.FREY IvoSUI2:17.44,5
2717.KELLENBERGER KurtFRA2:17.47,5
2718.STAUDENMANN MarkusSUI2:17.47,8
2719.UHL MartinGER2:17.49,4
2720.MEIER SeppSUI2:17.50,7
2721.Pfister UrsSUI2:17.51,4
2722.FELDMANN UrsSUI2:17.52,9
2723.Brunner DanielSUI2:17.54,6
2724.PERFUMO RenzoITA2:17.55,0
2725.GRIGUOLO LucaITA2:17.55,6
2726.KELLER OswaldGER2:17.55,7
2728.FROMMELT PeterLIE2:17.56,6
2729.GANTENBEIN WalterSUI2:17.59,0
2730.HOLINGER DanielSUI2:18.00,1
2731.WEBER LouisSUI2:18.01,5
2733.MATARESE RolandFRA2:18.02,4
2736.PFISTER StefanGER2:18.03,1
2740.PÜNCHERA PederSUI2:18.05,3
2741.BALTENSPERGER DanielSUI2:18.05,5
2742.RUSCH BertSUI2:18.06,1
2743.ONILLON EmmanuelSUI2:18.06,4
2744.MÜLLER FelixSUI2:18.07,3
2745.MIGLIORINI AngeloITA2:18.08,0
2746.COLLOT GillesSUI2:18.08,3
2747.STÖCKLI PeterSUI2:18.09,4
2749.SOLINAS AlessandroITA2:18.10,4
2750.SCHINDLER BeatSUI2:18.12,5
2751.ENZ Hans MartinSUI2:18.12,9
2753.FATZER AlfredSUI2:18.14,0
2755.Palliser RobertCAN2:18.14,2
2756.BÖSCH ToniSUI2:18.15,5
2757.ISLER HansruediSUI2:18.16,2
2758.GMÜR EtienneLIE2:18.16,5
2758.RICHARD AndréFRA2:18.16,5
2760.KRECKEL PeterGER2:18.17,1
2768.KUNDELA FranzSUI2:18.20,7
2769.BRÜSCHWEILER MathiasSUI2:18.21,4
2770.HAGENBUCHER WernerSUI2:18.22,0
2771.GASCH RonaldGER2:18.22,6
2773.PABST ThomasGER2:18.24,3
2774.NOSKE IngolfGER2:18.25,1
2775.OBERLI ThomasSUI2:18.25,8
2776.KÜTT AssarEST2:18.27,7
2777.WALDHEIM ThomasGER2:18.27,8
2778.Gmür MaxSUI2:18.28,2
2781.NEUMANN HolgerGER2:18.29,5
2782.RIVOLTA IvanoITA2:18.29,9
2783.WASEM WalterSUI2:18.31,2
2784.HEGGLIN EmilSUI2:18.31,4
2790.KAMMER DiegoSUI2:18.36,9
2790.ALA-JYRÄ JoriEST2:18.36,9
2797.FLURY FranzSUI2:18.45,3


next rankings:

2701 - 2800






  
Ammergauer AlpenEnervitjulbo-eyewearSki SkettRossignolJAO CollectionsFishermarathon skierFis ski
WL Next race approaching
left to...
Ushuaia Loppet
WL Next race approaching
left to...
Merino Muster
WORLDLOPPET
SKI FEDERATION

Loc. Stalimen 4, Stadio Del Salto
I-38037 Predazzo (Tn), Italy
Phone: +39.0462.501110
Fax: +39.0462.501120
Email: info@worldloppet.com

All Rights Reserved © 2015 Worldloppet Ski Federation

Impressum | Powered by   Juniper-XS - Cavalese (Tn)